Date String (YYYY-MM-DD hh:mm:ss) UTC,Instrument flags,absolute air pressure of the measurement (hPa),sample flow rate (lpm),inlet stack bypass flow (lpm),air temperature of the measurement (°C),ambient temperature measured by the external sensor (°C),aerosol sample conditioner tube jacket temperature (°C),OPC LED temperature (°C),internal box temperature (°C),relative humidity of the measurement (%),span deviation,mass concentration of particles derived from Lorenz-Mie calculation of OPC scattering (μg/m³),mass concentration of particles derived from Lorenz-Mie calculation of OPC scattering (μg/m³),mass concentration of particles derived from Lorenz-Mie calculation of OPC scattering (μg/m³)
DateTimeUTC,F1_M11,P_M11,Q1_M11,Q2_M11,T1_M11,T2_M11,T3_M11,T4_M11,T5_M11,U1_M11,ZSPAN_M11,X0_M11,X2_M11,X1_M11
2023-07-12 08:00:00,SystemResetWarning,0829.7,5.00,000.00,029.2,026.9,000.0,037.8,030.7,14.7,0000.0,0008.94,0003.88,0003.33
2023-07-12 08:01:00,SystemResetWarning,0829.7,5.00,000.00,029.3,027.1,000.0,037.8,030.8,14.7,0000.0,0009.22,0003.88,0003.32
2023-07-12 08:02:00,SystemResetWarning,0829.7,5.00,000.00,029.3,027.4,000.0,037.8,030.8,14.5,0000.0,0009.22,0003.88,0003.33
2023-07-12 08:03:00,SystemResetWarning,0829.7,5.00,000.00,029.3,027.6,000.0,037.8,030.9,14.3,0000.0,0009.47,0003.88,0003.33
2023-07-12 08:04:00,SystemResetWarning,0829.8,4.99,000.00,029.3,027.8,000.0,037.8,030.9,14.2,0000.0,0009.45,0003.87,0003.32
2023-07-12 08:05:00,SystemResetWarning,0829.8,4.99,000.00,029.3,027.9,000.0,037.8,031.0,14.2,0000.0,0009.51,0003.87,0003.32
2023-07-12 08:06:00,SystemResetWarning,0829.8,5.02,000.00,029.4,028.0,000.0,037.8,031.0,14.0,0000.0,0009.28,0003.85,0003.32
2023-07-12 08:07:00,SystemResetWarning,0829.8,5.01,000.00,029.4,028.1,000.0,037.8,031.0,14.2,0000.0,0008.92,0003.88,0003.32
2023-07-12 08:08:00,SystemResetWarning,0829.8,5.00,000.00,029.4,028.2,000.0,037.9,031.1,14.3,0000.0,0008.47,0003.90,0003.32
2023-07-12 08:09:00,SystemResetWarning,0829.8,4.99,000.00,029.5,028.3,000.0,037.9,031.1,14.2,0000.0,0008.45,0003.89,0003.32
2023-07-12 08:10:00,SystemResetWarning,0829.8,4.99,000.00,029.5,028.3,000.0,037.9,031.1,14.0,0000.0,0008.50,0003.91,0003.33
2023-07-12 08:11:00,SystemResetWarning,0829.8,5.01,000.00,029.5,028.4,000.0,037.9,031.2,13.9,0000.0,0008.00,0003.92,0003.33
2023-07-12 08:12:00,SystemResetWarning,0829.8,5.01,000.00,029.6,028.4,000.0,038.0,031.2,14.4,0000.0,0007.83,0003.94,0003.33
2023-07-12 08:13:00,SystemResetWarning,0829.8,5.00,000.00,029.6,028.5,000.0,038.0,031.2,14.7,0000.0,0008.06,0003.92,0003.32
2023-07-12 08:14:00,SystemResetWarning,0829.8,4.98,000.00,029.6,027.4,000.0,037.9,031.1,14.7,0000.0,0008.35,0003.96,0003.32
2023-07-12 08:15:00,SystemResetWarning,0829.8,5.02,000.00,029.5,025.6,000.0,037.8,030.9,14.5,0000.0,0008.32,0003.96,0003.32
2023-07-12 08:16:00,SystemResetWarning,0829.8,5.01,000.00,029.4,025.4,000.0,037.7,030.7,14.1,0000.0,0008.88,0003.99,0003.32
2023-07-12 08:17:00,SystemResetWarning,0829.8,4.99,000.00,029.3,025.6,000.0,037.8,030.5,13.6,0000.0,0009.37,0004.04,0003.32
2023-07-12 08:18:00,SystemResetWarning,0829.8,4.99,000.00,029.3,026.0,000.0,037.8,030.6,13.5,0000.0,0009.71,0004.03,0003.32
2023-07-12 08:19:00,SystemResetWarning,0829.8,5.00,000.00,029.3,026.4,000.0,037.8,030.6,13.5,0000.0,0009.74,0004.03,0003.32
2023-07-12 08:20:00,SystemResetWarning,0829.8,5.01,000.00,029.3,026.7,000.0,037.8,030.7,13.6,0000.0,0009.81,0004.04,0003.32
2023-07-12 08:21:00,SystemResetWarning,0829.8,5.01,000.00,029.3,027.1,000.0,037.8,030.8,13.7,0000.0,0009.80,0004.07,0003.31
2023-07-12 08:22:00,SystemResetWarning,0829.8,5.00,000.00,029.3,027.3,000.0,037.8,030.8,13.9,0000.0,0009.92,0004.03,0003.31
2023-07-12 08:23:00,SystemResetWarning,0829.8,4.99,000.00,029.3,027.5,000.0,037.8,030.9,14.6,0000.0,0010.64,0004.01,0003.30
2023-07-12 08:24:00,SystemResetWarning,0829.8,4.99,000.00,029.3,027.7,000.0,037.8,030.9,14.6,0000.0,0011.38,0004.02,0003.29
2023-07-12 08:25:00,SystemResetWarning,0829.8,5.02,000.00,029.4,027.8,000.0,037.8,031.0,13.7,0000.0,0010.92,0003.98,0003.29
2023-07-12 08:26:00,SystemResetWarning,0829.8,5.01,000.00,029.4,028.0,000.0,037.9,031.0,13.5,0000.0,0012.09,0003.94,0003.29
2023-07-12 08:27:00,SystemResetWarning,0829.8,4.99,000.00,029.4,028.1,000.0,037.9,031.0,14.0,0000.0,0011.59,0003.90,0003.28
2023-07-12 08:28:00,SystemResetWarning,0829.8,4.99,000.00,029.4,028.1,000.0,037.9,031.1,13.6,0000.0,0011.11,0003.84,0003.28
2023-07-12 08:29:00,SystemResetWarning,0829.9,5.00,000.00,029.5,028.2,000.0,037.9,031.1,13.5,0000.0,0010.67,0003.85,0003.28
2023-07-12 08:30:00,SystemResetWarning,0829.9,5.00,000.00,029.5,028.3,000.0,037.9,031.1,13.4,0000.0,0010.66,0003.86,0003.28
2023-07-12 08:31:00,SystemResetWarning,0829.8,5.01,000.00,029.5,028.3,000.0,038.0,031.2,13.3,0000.0,0010.63,0003.83,0003.28
2023-07-12 08:32:00,SystemResetWarning,0829.9,5.00,000.00,029.6,028.4,000.0,038.0,031.2,13.2,0000.0,0010.76,0003.82,0003.28
2023-07-12 08:33:00,SystemResetWarning,0830.0,5.01,000.00,029.6,028.4,000.0,038.0,031.2,13.2,0000.0,0010.66,0003.84,0003.29
2023-07-12 08:34:00,SystemResetWarning,0830.0,4.99,000.00,029.6,028.5,000.0,038.0,031.2,13.2,0000.0,0009.99,0003.84,0003.29
2023-07-12 08:35:00,SystemResetWarning,0830.0,4.99,000.00,029.6,028.0,000.0,038.0,031.2,13.3,0000.0,0009.28,0003.81,0003.29
2023-07-12 08:36:00,SystemResetWarning,0829.9,5.00,000.00,029.6,026.0,000.0,037.9,031.0,13.5,0000.0,0009.61,0003.84,0003.29
2023-07-12 08:37:00,SystemResetWarning,0829.9,5.01,000.00,029.5,025.3,000.0,037.8,030.8,13.4,0000.0,0008.75,0003.86,0003.29
2023-07-12 08:38:00,SystemResetWarning,0829.9,5.01,000.00,029.4,025.5,000.0,037.8,030.5,13.4,0000.0,0008.78,0003.85,0003.30
2023-07-12 08:39:00,SystemResetWarning,0829.9,5.00,000.00,029.3,025.9,000.0,037.8,030.5,13.5,0000.0,0008.96,0003.86,0003.30
2023-07-12 08:40:00,SystemResetWarning,0829.9,5.00,000.00,029.3,026.3,000.0,037.8,030.6,13.8,0000.0,0009.06,0003.83,0003.29
2023-07-12 08:41:00,SystemResetWarning,0829.9,5.00,000.00,029.3,026.6,000.0,037.8,030.7,13.8,0000.0,0009.21,0003.81,0003.29
2023-07-12 08:42:00,SystemResetWarning,0829.9,5.00,000.00,029.3,027.0,000.0,037.8,030.8,13.8,0000.0,0009.15,0003.82,0003.30
2023-07-12 08:43:00,SystemResetWarning,0829.9,5.00,000.00,029.3,027.2,000.0,037.9,030.8,13.6,0000.0,0009.42,0003.81,0003.29
2023-07-12 08:44:00,SystemResetWarning,0829.9,5.00,000.00,029.3,027.5,000.0,037.9,030.9,13.9,0000.0,0009.44,0003.79,0003.30
2023-07-12 08:45:00,SystemResetWarning,0830.0,4.99,000.00,029.3,027.7,000.0,037.9,030.9,13.7,0000.0,0010.46,0003.78,0003.29
2023-07-12 08:46:00,SystemResetWarning,0830.0,4.99,000.00,029.4,027.8,000.0,037.9,030.9,13.5,0000.0,0010.47,0003.78,0003.29
2023-07-12 08:47:00,SystemResetWarning,0830.0,5.01,000.00,029.4,027.9,000.0,037.9,031.0,14.2,0000.0,0009.87,0003.76,0003.29
2023-07-12 08:48:00,SystemResetWarning,0830.0,5.01,000.00,029.4,028.0,000.0,037.9,031.0,14.1,0000.0,0009.72,0003.78,0003.29
2023-07-12 08:49:00,SystemResetWarning,0830.0,4.99,000.00,029.4,028.1,000.0,037.9,031.1,13.7,0000.0,0009.44,0003.80,0003.28
2023-07-12 08:50:00,SystemResetWarning,0830.0,5.00,000.00,029.5,028.2,000.0,037.9,031.1,13.5,0000.0,0009.23,0003.82,0003.28
2023-07-12 08:51:00,SystemResetWarning,0830.0,5.02,000.00,029.5,028.3,000.0,038.0,031.1,13.4,0000.0,0009.76,0003.81,0003.29
2023-07-12 08:52:00,SystemResetWarning,0830.0,5.00,000.00,029.5,028.3,000.0,038.0,031.2,13.5,0000.0,0010.69,0003.82,0003.28
2023-07-12 08:53:00,SystemResetWarning,0830.0,4.99,000.00,029.6,028.4,000.0,038.0,031.2,13.6,0000.0,0010.91,0003.82,0003.28
2023-07-12 08:54:00,SystemResetWarning,0830.0,5.00,000.00,029.6,028.4,000.0,038.0,031.2,13.5,0000.0,0010.52,0003.81,0003.28
2023-07-12 08:55:00,SystemResetWarning,0830.0,5.01,000.00,029.6,028.5,000.0,038.0,031.2,13.5,0000.0,0010.82,0003.80,0003.28
2023-07-12 08:56:00,SystemResetWarning,0830.0,5.02,000.00,029.7,028.5,000.0,038.1,031.3,13.5,0000.0,0009.72,0003.80,0003.27
2023-07-12 08:57:00,SystemResetWarning,0830.0,4.98,000.00,029.7,028.5,000.0,038.1,031.3,13.4,0000.0,0009.65,0003.81,0003.28
2023-07-12 08:58:00,SystemResetWarning,0830.0,4.99,000.00,029.7,026.8,000.0,038.0,031.1,13.5,0000.0,0010.22,0003.82,0003.28
2023-07-12 08:59:00,SystemResetWarning,0830.0,5.01,000.00,029.6,025.4,000.0,037.9,030.9,13.9,0000.0,0010.15,0003.80,0003.28
